AA8FM-13 Weather Reports


Display with metric or nautical units.
time (UTC)temp
F
wind
direction
speed
MPH
gust
MPH
rain 1hr
in
rain 24hr
in
rain mn
in
humidity
%
barometer
mb
20260508023323 51 275 0.0 0.0 0.00 0.00 0.00 55 1011.1
20260508022819 51 260 0.0 0.0 0.00 0.00 0.00 57 1011.2
20260508022315 50 337 0.0 1.0 0.00 0.00 0.00 54 1010.9
20260508021812 51 289 0.0 0.0 0.00 0.00 0.00 55 1011.1
20260508021308 51 298 0.0 1.0 0.00 0.00 0.00 53 1011.0
20260508020804 51 317 0.0 0.0 0.00 0.00 0.00 53 1010.7
20260508020302 52 323 1.0 2.0 0.00 0.00 0.00 53 1010.7
20260508015759 52 261 0.0 0.0 0.00 0.00 0.00 51 1010.9
20260508015257 52 300 0.0 0.0 0.00 0.00 0.00 50 1010.7
20260508014753 53 329 0.0 0.0 0.00 0.00 0.00 49 1010.5
20260508014250 53 278 0.0 1.0 0.00 0.00 0.00 49 1010.5
20260508013745 52 320 1.0 1.0 0.00 0.00 0.00 49 1010.5
20260508013242 52 275 0.0 0.0 0.00 0.00 0.00 49 1010.4
20260508012740 53 327 0.0 0.0 0.00 0.00 0.00 47 1010.3
20260508012236 53 312 0.0 1.0 0.00 0.00 0.00 48 1010.0
20260508011735 53 290 0.0 0.0 0.00 0.00 0.00 48 1010.0
20260508011232 53 254 0.0 0.0 0.00 0.00 0.00 47 1010.0
20260508010728 53 277 0.0 1.0 0.00 0.00 0.00 47 1009.9
20260508010227 54 297 0.0 0.0 0.00 0.00 0.00 47 1009.7
20260508005723 53 20 0.0 1.0 0.00 0.00 0.00 46 1010.0
20260508005220 54 251 0.0 0.0 0.00 0.00 0.00 47 1010.0
20260508004716 55 232 0.0 0.0 0.00 0.00 0.00 46 1009.7
20260508004212 55 48 0.0 0.0 0.00 0.00 0.00 45 1009.5
20260508003709 55 21 1.0 3.0 0.00 0.00 0.00 45 1009.6
20260508003207 55 317 1.0 1.0 0.00 0.00 0.00 45 1009.5
20260508002703 55 331 1.0 1.0 0.00 0.00 0.00 45 1009.4
20260508002201 56 312 1.0 1.0 0.00 0.00 0.00 46 1009.3
20260508001656 56 331 1.0 2.0 0.00 0.00 0.00 47 1009.4
20260508001152 56 10 1.0 1.0 0.00 0.00 0.00 47 1009.3
20260508000648 57 226 0.0 0.0 0.00 0.00 0.00 46 1009.2
20260508000146 57 344 0.0 1.0 0.00 0.00 0.00 45 1009.0
20260507235642 57 227 0.0 0.0 0.00 0.00 0.00 46 1008.8
20260507235140 57 306 1.0 2.0 0.00 0.00 0.00 46 1009.0
20260507234636 57 207 0.0 0.0 0.00 0.00 0.00 47 1008.8
20260507234132 57 349 1.0 1.0 0.00 0.00 0.00 46 1008.8
20260507233629 58 337 2.0 2.0 0.00 0.00 0.00 45 1008.6
20260507233128 58 306 2.0 2.0 0.00 0.00 0.00 45 1008.8
20260507232625 59 209 0.0 1.0 0.00 0.00 0.00 45 1008.6
20260507232121 59 333 3.0 3.0 0.00 0.00 0.00 43 1008.5
20260507231617 59 321 1.0 2.0 0.00 0.00 0.00 44 1008.5
20260507231115 59 6 2.0 3.0 0.00 0.00 0.00 42 1008.7
20260507230611 60 326 4.0 7.0 0.00 0.00 0.00 42 1008.5
20260507230109 60 252 4.0 6.0 0.00 0.00 0.00 40 1008.4
20260507225603 61 287 9.0 13.0 0.00 0.00 0.00 41 1008.2
20260507225100 61 325 1.0 2.0 0.00 0.00 0.00 43 1008.2
20260507224555 60 302 1.0 2.0 0.00 0.00 0.00 43 1008.0
20260507224052 59 296 1.0 2.0 0.00 0.00 0.00 44 1008.3
20260507223548 59 1 2.0 3.0 0.00 0.00 0.00 44 1008.3
20260507223045 59 273 0.0 0.0 0.00 0.00 0.00 43 1008.3
20260507222542 60 280 2.0 3.0 0.00 0.00 0.00 46 1008.2
20260507222039 60 287 0.0 2.0 0.00 0.00 0.00 43 1008.1
20260507221535 60 331 1.0 2.0 0.00 0.00 0.00 42 1008.2
20260507221032 59 347 4.0 6.0 0.00 0.00 0.00 45 1008.1
20260507220529 60 344 4.0 4.0 0.00 0.00 0.00 42 1008.3
20260507220027 62 274 0.0 1.0 0.00 0.00 0.00 43 1007.9
20260507215523 62 7 5.0 8.0 0.00 0.00 0.00 42 1007.8
20260507215021 62 216 1.0 1.0 0.00 0.00 0.00 43 1007.8
20260507214518 62 52 1.0 1.0 0.00 0.00 0.00 43 1007.9
20260507214013 62 39 1.0 1.0 0.00 0.00 0.00 42 1008.0
20260507213510 62 8 4.0 7.0 0.00 0.00 0.00 42 1007.8
20260507213007 62 350 7.0 11.0 0.00 0.00 0.00 43 1007.8
20260507212503 62 330 3.0 4.0 0.00 0.00 0.00 42 1007.8
20260507211959 62 308 5.0 7.0 0.00 0.00 0.00 42 1007.4
20260507211456 63 255 1.0 1.0 0.00 0.00 0.00 45 1007.6
20260507210953 63 53 1.0 2.0 0.00 0.00 0.00 44 1007.4
20260507210450 62 287 3.0 4.0 0.00 0.00 0.00 41 1007.7
20260507205947 62 0 4.0 7.0 0.00 0.00 0.00 44 1007.5
20260507205444 61 309 1.0 1.0 0.00 0.00 0.00 43 1007.6
20260507204940 61 346 5.0 8.0 0.00 0.00 0.00 45 1007.5
20260507204436 59 229 1.0 2.0 0.00 0.00 0.00 45 1007.6
20260507203934 59 343 5.0 8.0 0.00 0.00 0.00 45 1007.5
20260507203432 59 317 0.0 1.0 0.00 0.00 0.00 49 1007.8
20260507202928 60 334 2.0 3.0 0.00 0.00 0.00 46 1007.5
20260507202425 61 346 2.0 3.0 0.00 0.00 0.00 45 1007.6
20260507201921 60 315 1.0 4.0 0.00 0.00 0.00 46 1007.7
20260507201416 60 5 2.0 3.0 0.00 0.00 0.00 47 1007.8
20260507200913 63 295 3.0 4.0 0.00 0.00 0.00 47 1007.8
20260507200409 62 345 6.0 7.0 0.00 0.00 0.00 46 1007.5
20260507195904 62 350 5.0 7.0 0.00 0.00 0.00 46 1007.5
20260507195402 61 159 0.0 1.0 0.00 0.00 0.00 48 1008.0
20260507194859 62 322 1.0 2.0 0.00 0.00 0.00 49 1008.0
20260507194356 61 66 2.0 4.0 0.00 0.00 0.00 46 1008.2
20260507193852 63 275 0.0 2.0 0.00 0.00 0.00 50 1008.2
20260507193349 62 214 1.0 2.0 0.00 0.00 0.00 50 1008.3
20260507192845 60 307 2.0 2.0 0.00 0.00 0.00 48 1008.1
20260507192342 62 337 2.0 3.0 0.00 0.00 0.00 47 1008.5
20260507191838 61 266 0.0 0.0 0.00 0.00 0.00 50 1008.4
20260507191335 60 296 6.0 7.0 0.00 0.00 0.00 48 1008.2
20260507190832 60 11 6.0 7.0 0.00 0.00 0.00 48 1008.2
20260507190330 61 353 1.0 1.0 0.00 0.00 0.00 50 1008.3
20260507185829 63 338 4.0 6.0 0.00 0.00 0.00 45 1008.2
20260507185325 62 307 1.0 1.0 0.00 0.00 0.00 47 1008.2
20260507184822 60 256 1.0 2.0 0.00 0.00 0.00 53 1008.2
20260507184320 61 330 1.0 1.0 0.00 0.00 0.00 49 1008.4
20260507183817 62 343 1.0 2.0 0.00 0.00 0.00 46 1008.4
20260507183314 62 330 2.0 6.0 0.00 0.00 0.00 51 1008.4
20260507182811 62 110 1.0 2.0 0.00 0.00 0.00 48 1008.1
20260507182307 62 6 2.0 3.0 0.00 0.00 0.00 48 1008.4
20260507181803 62 95 0.0 1.0 0.00 0.00 0.00 49 1008.7
20260507181259 62 12 3.0 4.0 0.00 0.00 0.00 48 1008.4
20260507180756 62 299 1.0 1.0 0.00 0.00 0.00 49 1008.5
20260507180253 61 245 2.0 3.0 0.00 0.00 0.00 53 1008.4
20260507175748 60 219 0.0 0.0 0.00 0.00 0.00 56 1008.5
20260507175246 61 212 0.0 1.0 0.00 0.00 0.00 51 1008.5
20260507174743 59 359 2.0 3.0 0.00 0.00 0.00 50 1008.8
20260507174241 61 342 2.0 4.0 0.00 0.00 0.00 53 1008.5
20260507173739 59 0 1.0 1.0 0.00 0.00 0.00 52 1008.6
20260507173235 59 293 0.0 0.0 0.00 0.00 0.00 53 1008.5
20260507172732 59 336 2.0 2.0 0.00 0.00 0.00 53 1008.9
20260507172229 60 327 0.0 1.0 0.00 0.00 0.00 47 1008.7
20260507171728 61 14 3.0 4.0 0.00 0.00 0.00 47 1008.9
20260507171226 61 240 1.0 1.0 0.00 0.00 0.00 50 1009.0
20260507170723 61 5 4.0 4.0 0.00 0.00 0.00 48 1009.1
20260507170220 61 346 3.0 4.0 0.00 0.00 0.00 52 1009.0
20260507165715 60 320 1.0 1.0 0.00 0.00 0.00 50 1009.2
20260507165212 58 346 5.0 8.0 0.00 0.00 0.00 50 1009.3
20260507164708 59 292 4.0 7.0 0.00 0.00 0.00 50 1009.4
20260507164206 58 224 1.0 1.0 0.00 0.00 0.00 55 1009.3
20260507163702 58 308 2.0 2.0 0.00 0.00 0.00 52 1009.4
20260507163200 59 269 1.0 2.0 0.00 0.00 0.00 50 1009.3
20260507162656 60 266 2.0 4.0 0.00 0.00 0.00 49 1009.5
20260507162152 60 291 1.0 2.0 0.00 0.00 0.00 50 1009.7
20260507161648 59 187 3.0 6.0 0.00 0.00 0.00 52 1009.5
20260507161145 60 287 1.0 2.0 0.00 0.00 0.00 49 1009.5
20260507160642 59 169 1.0 2.0 0.00 0.00 0.00 51 1009.4
20260507160138 59 314 2.0 3.0 0.00 0.00 0.00 53 1009.7
20260507155634 58 331 6.0 8.0 0.00 0.00 0.00 53 1009.9
20260507155131 58 278 2.0 3.0 0.00 0.00 0.00 56 1009.9
20260507154627 59 335 2.0 4.0 0.00 0.00 0.00 54 1009.7
20260507154125 58 321 2.0 3.0 0.00 0.00 0.00 53 1009.7
20260507153621 59 51 3.0 4.0 0.00 0.00 0.00 51 1010.0
20260507153118 59 169 0.0 0.0 0.00 0.00 0.00 57 1010.0
20260507152614 57 245 0.0 0.0 0.00 0.00 0.00 58 1010.0
20260507152110 59 184 0.0 1.0 0.00 0.00 0.00 54 1009.9
20260507151606 57 284 1.0 1.0 0.00 0.00 0.00 55 1010.0
20260507151103 57 326 3.0 3.0 0.00 0.00 0.00 56 1010.2
20260507150601 57 333 2.0 2.0 0.00 0.00 0.00 57 1009.9
20260507150057 57 165 0.0 1.0 0.00 0.00 0.00 55 1010.1
20260507145552 58 1 2.0 3.0 0.00 0.00 0.00 51 1010.3
20260507145050 57 344 2.0 3.0 0.00 0.00 0.00 53 1010.4
20260507144546 57 9 2.0 2.0 0.00 0.00 0.00 59 1010.6
20260507144045 58 329 2.0 3.0 0.00 0.00 0.00 57 1010.6
20260507143541 56 214 0.0 0.0 0.00 0.00 0.00 61 1010.5
20260507143039 57 348 1.0 2.0 0.00 0.00 0.00 61 1010.6
20260507142533 55 303 0.0 1.0 0.00 0.00 0.00 63 1010.7
20260507142031 57 326 3.0 3.0 0.00 0.00 0.00 61 1010.6
20260507141527 56 235 0.0 1.0 0.00 0.00 0.00 61 1010.7
20260507141023 55 324 1.0 1.0 0.00 0.00 0.00 62 1010.9
20260507140520 55 21 2.0 2.0 0.00 0.00 0.00 65 1010.9
20260507140018 55 340 5.0 6.0 0.00 0.00 0.00 60 1011.1
20260507135514 54 194 2.0 2.0 0.00 0.00 0.00 65 1010.9
20260507135012 54 343 1.0 2.0 0.00 0.00 0.00 66 1010.9
20260507134508 53 309 1.0 1.0 0.00 0.00 0.00 71 1011.0
20260507134004 55 263 1.0 1.0 0.00 0.00 0.00 72 1011.1
20260507133500 54 208 0.0 0.0 0.00 0.00 0.00 73 1011.3
20260507132959 53 211 0.0 1.0 0.00 0.00 0.00 75 1011.1
20260507132454 53 216 1.0 1.0 0.00 0.00 0.00 75 1011.4
20260507131951 53 138 0.0 0.0 0.00 0.00 0.00 76 1011.3
20260507131448 52 326 0.0 1.0 0.00 0.00 0.00 78 1011.2
20260507130945 51 235 0.0 0.0 0.00 0.00 0.00 81 1011.3
20260507130442 50 242 0.0 0.0 0.00 0.00 0.00 82 1011.4
20260507125941 50 262 0.0 0.0 0.00 0.00 0.00 83 1011.1
20260507125439 50 342 1.0 1.0 0.00 0.00 0.00 82 1011.4
20260507124936 49 230 0.0 1.0 0.00 0.00 0.00 86 1011.2
20260507124432 49 173 0.0 0.0 0.00 0.00 0.00 84 1011.5
20260507123930 50 247 0.0 0.0 0.00 0.00 0.00 84 1011.5
20260507123427 50 240 0.0 0.0 0.00 0.00 0.00 85 1011.5
20260507122923 49 274 0.0 0.0 0.00 0.00 0.00 85 1011.5
20260507122413 49 267 0.0 0.0 0.00 0.00 0.00 85 1011.3
20260507121910 49 284 0.0 0.0 0.00 0.00 0.00 86 1011.6
20260507121405 49 240 0.0 0.0 0.00 0.00 0.00 86 1011.4
20260507120902 49 286 0.0 1.0 0.00 0.00 0.00 86 1011.5
20260507120358 49 248 0.0 0.0 0.00 0.00 0.00 87 1011.5
20260507115855 49 256 0.0 0.0 0.00 0.00 0.00 86 1011.2
20260507115351 49 259 0.0 0.0 0.00 0.00 0.00 89 1011.3
20260507114846 48 259 0.0 0.0 0.00 0.00 0.00 90 1011.0
20260507114344 48 241 0.0 0.0 0.00 0.00 0.00 92 1011.2
20260507113841 48 244 0.0 0.0 0.00 0.00 0.00 94 1011.3
20260507113338 48 241 0.0 0.0 0.00 0.00 0.00 95 1011.0
20260507112835 48 236 0.0 0.0 0.00 0.00 0.00 96 1011.2
20260507112332 48 227 0.0 0.0 0.00 0.00 0.00 96 1010.8
20260507111830 48 243 0.0 0.0 0.00 0.00 0.00 95 1010.9
20260507111327 47 243 0.0 0.0 0.00 0.00 0.00 96 1010.9
20260507110823 47 234 0.0 0.0 0.00 0.00 0.00 95 1010.6
20260507110319 47 246 0.0 0.0 0.00 0.00 0.00 95 1010.8
20260507105816 47 252 0.0 0.0 0.00 0.00 0.00 95 1010.9
20260507105313 47 264 0.0 0.0 0.00 0.00 0.00 95 1010.6
20260507104810 46 266 0.0 0.0 0.00 0.00 0.00 94 1010.7
20260507104306 47 277 0.0 0.0 0.00 0.00 0.00 94 1010.4
20260507103802 46 245 0.0 0.0 0.00 0.00 0.00 93 1010.3
20260507103258 47 238 0.0 0.0 0.00 0.00 0.00 93 1010.3
20260507102755 47 234 0.0 0.0 0.00 0.00 0.00 92 1010.3
20260507102251 47 234 0.0 0.0 0.00 0.00 0.00 93 1010.6
20260507101748 47 231 0.0 0.0 0.00 0.00 0.00 92 1010.5
20260507101242 48 240 0.0 0.0 0.00 0.00 0.00 91 1010.3
20260507100740 48 224 0.0 0.0 0.00 0.00 0.00 91 1010.4
20260507100239 48 258 0.0 0.0 0.00 0.00 0.00 90 1010.2
20260507095736 48 282 0.0 0.0 0.00 0.00 0.00 90 1010.4
20260507095232 48 275 0.0 0.0 0.00 0.00 0.00 90 1010.3
20260507094729 48 268 0.0 0.0 0.00 0.00 0.00 91 1010.4
20260507094226 48 259 0.0 0.0 0.00 0.00 0.00 94 1010.3
20260507093723 48 256 0.0 0.0 0.00 0.00 0.00 95 1010.1
20260507093221 49 248 0.0 0.0 0.00 0.00 0.00 96 1010.3
20260507092719 49 259 0.0 0.0 0.00 0.00 0.00 97 1010.0
20260507092214 49 266 0.0 0.0 0.00 0.00 0.00 97 1010.1
20260507091711 49 263 0.0 0.0 0.00 0.00 0.00 97 1010.0
20260507091208 49 289 0.0 0.0 0.00 0.00 0.00 96 1010.0
20260507090703 49 270 0.0 0.0 0.00 0.00 0.00 97 1010.1
20260507090200 49 282 0.0 0.0 0.00 0.00 0.00 97 1010.1
20260507085657 49 284 0.0 0.0 0.00 0.00 0.00 98 1010.2
20260507085154 50 247 0.0 0.0 0.00 0.00 0.00 98 1010.2
20260507084651 50 258 0.0 0.0 0.00 0.00 0.00 98 1010.1
20260507084148 50 249 0.0 0.0 0.00 0.00 0.00 98 1009.9
20260507083644 50 256 0.0 0.0 0.00 0.00 0.00 98 1010.0
20260507083142 50 260 0.0 0.0 0.00 0.00 0.00 98 1009.9
20260507082637 50 256 0.0 0.0 0.00 0.00 0.00 98 1010.0
20260507082134 50 266 0.0 0.0 0.00 0.00 0.00 98 1010.0
20260507081630 50 255 0.0 0.0 0.00 0.00 0.00 98 1010.0
20260507081127 50 243 0.0 0.0 0.00 0.00 0.00 98 1010.1
20260507080623 50 242 0.0 0.0 0.00 0.00 0.00 98 1010.1
20260507080120 50 252 0.0 0.0 0.00 0.00 0.00 97 1010.2
20260507075620 50 255 0.0 0.0 0.00 0.00 0.00 97 1010.3
20260507075116 50 260 0.0 0.0 0.00 0.00 0.00 96 1010.3
20260507074614 50 255 0.0 0.0 0.00 0.00 0.00 96 1010.3
20260507074112 50 244 0.0 0.0 0.00 0.00 0.00 96 1010.3
20260507073608 50 258 0.0 0.0 0.00 0.00 0.00 96 1010.2
20260507073104 50 247 0.0 0.0 0.00 0.00 0.00 96 1010.1
20260507072601 50 255 0.0 0.0 0.00 0.00 0.00 96 1010.0
20260507072059 50 310 0.0 0.0 0.00 0.00 0.00 96 1010.1
20260507071556 50 280 0.0 0.0 0.00 0.00 0.00 97 1010.2
20260507071052 50 259 0.0 0.0 0.00 0.00 0.00 97 1010.1
20260507070549 50 266 0.0 0.0 0.00 0.00 0.00 97 1010.2
20260507070047 50 273 0.0 0.0 0.00 0.00 0.00 97 1010.3
20260507065543 50 268 0.0 0.0 0.00 0.00 0.00 96 1010.2
20260507065040 50 245 0.0 0.0 0.00 0.00 0.00 96 1010.1
20260507064538 50 277 0.0 0.0 0.00 0.00 0.00 97 1009.9
20260507064036 51 279 0.0 0.0 0.00 0.00 0.00 97 1009.9
20260507063533 51 248 0.0 0.0 0.00 0.00 0.00 96 1010.0
20260507063031 50 260 0.0 0.0 0.00 0.00 0.00 96 1009.7
20260507062527 51 260 0.0 0.0 0.00 0.00 0.00 96 1009.9
20260507062025 51 262 0.0 0.0 0.00 0.00 0.00 96 1010.1
20260507061522 51 263 0.0 0.0 0.00 0.00 0.00 96 1010.0
20260507061020 51 259 0.0 0.0 0.00 0.00 0.00 96 1010.2
20260507060518 51 258 0.0 0.0 0.00 0.00 0.00 96 1010.1
20260507060014 51 262 0.0 0.0 0.00 0.00 0.00 96 1010.3
20260507055514 51 276 0.0 0.0 0.00 0.00 0.00 96 1010.0
20260507055011 51 318 1.0 2.0 0.00 0.00 0.00 96 1010.2
20260507054507 51 256 0.0 0.0 0.00 0.00 0.00 97 1010.2
20260507054004 51 304 0.0 1.0 0.00 0.00 0.00 99 1010.3
20260507053502 51 305 0.0 0.0 0.00 0.00 0.00 99 1010.3
20260507053000 50 36 2.0 2.0 0.00 0.00 0.00 99 1010.3
20260507052458 51 326 1.0 1.0 0.00 0.00 0.00 99 1010.4
20260507051954 51 359 1.0 2.0 0.00 0.00 0.00 99 1010.5
20260507051452 51 291 0.0 0.0 0.00 0.00 0.00 99 1010.6
20260507050948 51 263 0.0 0.0 0.00 0.00 0.00 99 1010.5
20260507050445 51 241 0.0 0.0 0.00 0.00 0.00 99 1010.7
20260507045942 51 240 0.0 0.0 0.00 0.00 0.00 99 1010.6
20260507045438 51 238 0.0 0.0 0.00 0.00 0.00 99 1010.6
20260507044936 52 247 0.0 0.0 0.00 0.00 0.00 99 1010.3
20260507044432 52 245 0.0 0.0 0.00 0.00 0.00 99 1010.5
20260507043928 52 215 0.0 0.0 0.00 0.00 0.00 99 1010.6
20260507043425 52 243 0.0 0.0 0.00 0.00 0.00 99 1010.4
20260507042921 52 238 0.0 0.0 0.00 0.00 0.00 99 1010.4
20260507042418 52 259 0.0 0.0 0.00 0.00 0.00 99 1010.3
20260507041914 52 247 0.0 0.0 0.00 0.00 0.00 99 1010.3
20260507041411 52 232 0.0 0.0 0.00 0.00 0.00 99 1010.4
20260507040908 52 242 0.0 0.0 0.00 0.00 0.00 99 1010.5
20260507040404 52 250 0.0 0.0 0.00 0.00 0.00 99 1010.3
20260507035900 52 252 0.0 0.0 0.00 0.51 0.51 99 1010.3
20260507035356 52 242 0.0 0.0 0.00 0.51 0.51 99 1010.1
20260507034853 52 241 0.0 0.0 0.00 0.51 0.51 99 1010.3
20260507034350 52 241 0.0 0.0 0.00 0.51 0.51 99 1010.3
20260507033848 52 264 0.0 0.0 0.00 0.51 0.51 99 1010.3
20260507033346 52 263 0.0 0.0 0.00 0.51 0.51 99 1010.2
20260507032842 52 235 0.0 0.0 0.00 0.51 0.51 99 1010.3
20260507032339 52 249 0.0 0.0 0.00 0.51 0.51 99 1010.3
20260507031835 52 264 0.0 0.0 0.00 0.51 0.51 99 1010.4
20260507031332 52 233 0.0 0.0 0.00 0.51 0.51 99 1010.4
20260507030829 52 250 0.0 0.0 0.00 0.51 0.51 99 1010.5
20260507030327 52 232 0.0 0.0 0.00 0.51 0.51 99 1010.5
20260507025823 52 252 0.0 0.0 0.00 0.51 0.51 99 1010.6
20260507025321 52 246 0.0 0.0 0.00 0.51 0.51 99 1010.8
20260507024818 52 245 0.0 0.0 0.00 0.51 0.51 99 1010.5
20260507024315 52 242 0.0 0.0 0.00 0.51 0.51 99 1010.5
20260507023811 52 240 0.0 0.0 0.00 0.51 0.51 99 1010.5